Погода в Зуле

Германия     50°36′54″N   10°41′50″E
темп.,
°C
ветер,
м/с
пор.,
м/с
влажн.,
%
обл.,
%
осадки,
мм/ч
давл.,
гПа
погр.,
м
15 апреля, чт
чт1523:00−1ссв228488 0.0 102917
02:00−2ссв228620 0.0 102923
05:00−3ссв22915 0.0 102943
08:000ссв398289 0.1 1029555
11:00+4ссв4648100 0.0 10281476
14:00+5ссв5644100 0.1 10282178
17:00+4ссв5757100 0.1 10271504
20:00+1ссв4870100 0.3 1027751
16 апреля, пт
пт1623:000ссв2890100 0.1 1028530
02:000с3892100 0.3 1027690
05:00−1с298995 0.3 1026644
08:000ссв398199 0.6 1026630
11:00+3ссв477489 0.1 1026885
14:00+4ссв467299 0.3 1025964
17:00+6св476198 0.0 10241301
20:00+3ссв247998 0.0 102491
17 апреля, сб
сб1723:00+1ссв388597 0.0 1025228
02:00−1ссв269331 0.0 1025127
05:00−2ссв249681 0.0 1025119
08:00+1с2783100 0.1 1024515
11:00+3с2588100 0.2 1023667
14:00+2ссв2495100 0.4 1023436
17:00+2ссв2596100 0.1 1022504
20:00+1ссв1798100 0.1 1023468
18 апреля, вс
вс1823:00+1ссв2698100 0.0 1024272
02:00+2с1399100 0.0 1023122
05:00+2ссз239898 0.0 1022150
08:00+3сз1395100 0.1 1022210
11:00+4сз2696100 0.5 1022657
14:00+4сз2596100 0.6 1022641
17:00+5сз1594100 0.0 1021506
20:00+4сз2290100 0.4 102278
19 апреля, пн
пн1923:00+4сз139899 0.4 1022103
02:00+3с229875 0.4 102165
05:00+4ссв1197100 0.0 102135
08:00+4с129799 1.0 102192
11:00+8св247384 0.3 10201082
14:00+10всв345899 0.7 10181578
17:00+10св4461100 0.2 10171205
20:00+6св248654 0.3 101889